Showing default

NUSAT-37 (JOAN CLARKE), 56203

Orbit data source: Space-Track

NUSAT-37 (JOAN CLARKE), 56203 is a payload satellite owned by URUGUS S.A. (AR) in SSO that was launched on Sat, 15 Apr 2023 UTC via an FALCON 9 launch vehicle from the Air Force Western Test Range (AFWTR). Payload-class satellites include a variety of spacecraft equipped with specific instruments for various scientific and technological missions. These include communications satellites like Starlink; space stations such as the ISS; scientific satellites like the Hubble; Earth observation satellites from companies like Planet Labs, Umbra, and HawkEye 360; GPS; miniature CubeSats for education and research; and military/defense satellites.

Loading next visibility...
Identifier
56203, 2023-054AB
Orbit
SSO
Country
Flag of ARAR / ARGN
Related business
Manufacturer
URUGUS S.A.
Mission
Operational Commercial Imaging
Bus & Motor
NEWSAT V, Unknown motor
Mass
41.5 kg wet, 38.5 kg dry
Launch date (UTC)
2023-04-15 (3 years ago)
Launch vehicle
FALCON 9
Launch site
Air Force Western Test Range (AFWTR)
Object type
Payload
Rocket body
Debris
Shape & HBR
Box, 1.0 m
Radar Cross Section
0.542 m², Medium (>0.1 m² and < 1m²)

Expand to show TLE details & history
Last TLE update: 4 hours ago

TLE from 4 hours ago
0 NUSAT-37 (JOAN CLARKE)
1 56203U 23054AB  26133.49929058  .00025755  00000-0  39434-3 0  9991
2 56203  97.2681  40.0052 0008420  58.4493 301.7582 15.54300344173252
Epoch: 2026-05-13T11:58Z
TLE epoch observation values (Epoch: 2026-05-13T11:58:58.706Z)
Latitude
-0.00002°
Longitude
-10.99784°
Altitude
404.325 km
Speed
7.67 km/s
True Right ascension
02h 40m 01s
True Declination
0° 00' 00"
Sunlit
Object was in daylight at epoch
Visualization orbit readout
Latitude
Unknown
Longitude
Unknown
Altitude
Unknown
Speed
Unknown
Apparent Right ascension
Unknown
Apparent Declination
Unknown
Sunlit
N/A
Visualization observer readout
Local Sidereal Time
00:17:35
Azimuth
Unknown
Elevation
Unknown
Doppler factor
Unknown
Orbital elements
Apogee altitude
406.81 km
Perigee altitude
395.393 km
Semi-major axis
6,779.239 km
Eccentricity
0.00084
Inclination
97.2681°
RAAN
40.0052°
Arg. of periapsis
58.4493°
True anomaly
301.67611°
Mean anomaly
301.7582°
Eccentric anomaly
301.71716°
Mean motion
3.88841 °/min
Orbital period
92.58 mins
BSTAR
0.00039434
Loading maneuver chart data...
Computing Atmospheric mass density...
Loading historical data...
Loading historical data...
Loading historical data...
Loading historical data...
Loading historical data...
Loading historical data...
Loading historical data...

Documentation

Showing up to 5 results
|